Location: Kershaw
(34.5481°N, 80.5823°W)
Time: 23:47:34
(UTC+00:00)

Transit 4A - Pass Details

Date: 10 October 2022
Orbit: 871 x 972 km, 66.8° (Epoch: 09 December)

Event Time Altitude Azimuth Distance (km) Brightness Sun altitude
Rises 00:55:27 0° 193° (SSW) 3,615 11.0 -25.5°
Reaches altitude 10° 00:58:03 10° 189° (S) 2,660 10.3 -26.0°
Enters shadow 01:01:34 34° 173° (S) 1,498 8.8 -26.7°
